DELTA 1 DEB, 10833

Orbit data source: Space-Track

DELTA 1 DEB, 10833 is space debris in SSO originally from a launch on Thu, 29 Jul 1976 UTC launched from the Air Force Western Test Range (AFWTR). Debris objects in space refer to the collection of defunct objects orbiting the Earth. Examples of debris include non-operational satellites, rocket bodies, and fragments generated from explosions, collisions, or faulty payload assembly.

Loading next visibility...
Identifier
10833, 1976-077CD
Orbit
SSO
Country
Flag of USUS
Related business
Manufacturer
Unknown
Mission
Spacecraft
Bus & Motor
Unknown
Mass
Unknown
Launch date (UTC)
1976-07-29 (49 years ago)
Launch vehicle
Unknown
Launch site
Air Force Western Test Range (AFWTR)
Object type
Payload
Rocket body
Debris
Shape & HBR
Unknown shape, 0.2 m
Radar Cross Section
Medium (>0.1 m² and <1 m²)

Expand to show TLE details & history
Last TLE update: 9 hours ago

TLE from 9 hours ago
0 DELTA 1 DEB
1 10833U 76077CD  25352.91049057  .00000156  00000-0  15690-2 0  9999
2 10833 102.0932 324.1661 0110556 116.8878 304.0462 12.34661836220164
Epoch: 2025-12-18T21:51Z
TLE epoch observation values (Epoch: 2025-12-18T21:51:06.385Z)
Latitude
57.84552°
Longitude
-111.19567°
Altitude
1,490.557 km
Speed
7.146 km/s
True Right ascension
20h 17m 21s
True Declination
57° 42' 17"
Sunlit
Object was in daylight at epoch
Visualization orbit readout
Latitude
Unknown
Longitude
Unknown
Altitude
Unknown
Speed
Unknown
Apparent Right ascension
Unknown
Apparent Declination
Unknown
Sunlit
N/A
Visualization observer readout
Local Sidereal Time
06:07:08
Azimuth
Unknown
Elevation
Unknown
Doppler factor
Unknown
Orbital elements
Apogee altitude
1,614.295 km
Perigee altitude
1,439.506 km
Semi-major axis
7,905.038 km
Eccentricity
0.01106
Inclination
102.0932°
RAAN
324.1661°
Arg. of periapsis
116.8878°
True anomaly
302.98836°
Mean anomaly
304.0462°
Eccentric anomaly
303.51809°
Mean motion
3.08807 °/min
Orbital period
116.58 mins
BSTAR
0.001569
Loading maneuver chart data...
Computing Atmospheric mass density...
Loading historical data...
Loading historical data...
Loading historical data...
Loading historical data...
Loading historical data...
Loading historical data...
Loading historical data...

Documentation

Showing up to 5 results
|